Location: Seagrave Observatory
(41.8500°N, 71.5833°W)
Time: 03:57:01
(UTC-04:00)

Daily predictions for brighter satellites

Satellite Brightness Start Highest point End
(mag) Time Altitude Azimuth Time Altitude Azimuth Time Altitude Azimuth
ISS -0.3 00:14:55 13° NE 00:14:55 13° NE 00:15:19 10° NE
Cosmos 1655 Rocket 4.1 00:11:36 56° ESE 00:12:15 59° E 00:18:25 10° NNE
Cosmos 1943 Rocket 2.4 00:14:32 10° NNW 00:19:48 55° WSW 00:19:48 55° WSW
Cosmos 1953 4.3 00:18:13 10° NW 00:20:33 21° WNW 00:20:33 21° WNW
Lacrosse 4 Rocket 3.1 00:22:28 26° WNW 00:22:56 26° NW 00:26:25 10° N
Cosmos 1470 4.1 00:25:59 10° NNW 00:28:29 36° NW 00:28:29 36° NW
Cosmos 1140 Rocket 3.9 00:30:00 52° W 00:30:28 54° WNW 00:35:38 10° N
Cosmos 2369 Rocket 4.3 00:40:31 10° WNW 00:42:56 13° W 00:42:56 13° W
Cosmos 1428 Rocket 4.4 00:42:36 63° ESE 00:43:08 66° E 00:49:16 10° NNE
Cosmos 1656 Rocket 3.6 00:37:42 10° NNW 00:43:21 74° WSW 00:43:21 74° WSW
CZ-2C R/B 2.9 00:43:38 10° NNE 00:49:08 56° E 00:49:08 56° E
CZ-2C R/B 4.1 00:48:31 36° E 00:49:37 40° ENE 00:54:49 10° N
Meteor 1-16 Rocket 4.1 00:46:04 10° NNW 00:51:36 72° W 00:51:41 71° WSW
CZ-4B R/B 3.9 00:57:18 19° NW 00:57:18 19° NW 00:58:46 10° NW
COSMOS 2406 4.0 00:55:40 38° W 00:56:58 44° WNW 01:02:27 10° NNE
Cosmos 405 Rocket 4.1 00:59:16 37° NNE 00:59:16 37° NNE 01:01:43 10° NNE
NOSS 3-2 (A) 3.5 00:57:43 62° SE 00:57:55 62° ESE 01:04:26 10° NE
Cosmos 2026 Rocket 4.1 00:59:46 53° WSW 01:00:33 57° W 01:06:32 10° N
ATLAS 3B R/B 4.3 00:53:58 10° WSW 01:00:46 33° NW 01:07:25 10° NNE
Cosmos 1766 Rocket 4.0 01:02:20 59° NNW 01:02:20 59° NNW 01:06:04 10° N
Cosmos 2278 4.1 01:00:52 10° NNW 01:06:26 55° ENE 01:07:37 47° ESE
Cosmos 2228 Rocket 3.5 01:02:41 10° N 01:06:20 59° N 01:06:20 59° N
Cosmos 1763 Rocket 4.4 01:07:59 10° N 01:13:04 42° ENE 01:14:20 36° E
Cosmos 1328 Rocket 4.0 01:13:23 10° N 01:17:02 60° NNE 01:17:02 60° NNE
Meteor 2-20 4.4 01:18:14 65° SSE 01:19:03 74° E 01:25:13 10° NNE
SL-8 R/B 3.9 01:15:02 10° WNW 01:19:52 68° NNE 01:20:11 66° NE
Cosmos 1515 Rocket 3.9 01:20:42 10° N 01:24:37 64° NNE 01:24:37 64° NNE
Meteor 1-24 Rocket 4.4 01:27:04 44° W 01:27:58 47° WNW 01:33:43 10° N
USA 215 3.3 01:22:49 10° NE 01:29:12 54° SE 01:29:53 52° SSE
Cosmos 2221 4.4 01:26:37 10° NW 01:28:56 21° WNW 01:28:56 21° WNW
Cosmos 2082 Rocket 2.8 01:29:53 42° ESE 01:30:11 42° ESE 01:35:29 10° NE
Cosmos 883 Rocket 4.4 01:25:46 10° N 01:32:10 84° E 01:33:24 61° SSE
Meteor 2-2 Rocket 4.3 01:28:36 10° N 01:34:18 72° E 01:35:15 59° SE
Cosmos 1697 Rocket 4.0 01:32:36 10° N 01:37:48 35° ENE 01:41:45 16° ESE
ERS-2 4.2 01:39:08 10° NE 01:41:26 20° E 01:41:26 20° E
Cosmos 1833 Rocket 3.2 01:47:33 43° SE 01:48:13 46° ESE 01:53:34 10° NE
Cosmos 2315 Rocket 4.0 01:42:08 10° N 01:48:30 81° E 01:50:07 53° SSE
Cosmos 841 Rocket 3.5 01:43:36 10° NNW 01:48:52 78° ENE 01:49:35 65° SE
Meteor 1-21 Rocket 4.2 01:48:32 66° SW 01:49:17 76° W 01:55:02 10° N
ISS -0.3 01:47:29 11° NW 01:49:20 16° N 01:51:26 10° NNE
CZ-4C R/B 2.3 01:48:51 56° WSW 01:49:50 66° NW 01:55:50 10° NNE
NOSS 3-3 (A) 4.4 01:45:48 10° NW 01:53:13 68° WSW 01:55:46 45° S
NOSS 3-3 (C) 4.4 01:45:55 10° NW 01:53:20 69° WSW 01:55:56 45° S
Cosmos 405 4.4 01:52:54 10° N 01:55:57 34° ENE 01:55:57 34° ENE
Cosmos 1805 Rocket 4.5 01:57:00 38° ESE 01:57:18 38° E 02:01:25 10° NNE
Timation 2 Rocket 4.3 01:57:26 48° SW 01:59:26 71° WNW 02:06:17 10° NNE
Cosmos 2344 3.6 01:58:28 45° SSW 02:01:16 86° SE 02:10:06 10° NE
NOSS 3-2 (C) 3.7 01:59:33 44° WSW 02:01:28 64° NW 02:08:09 10° NNE
Landsat 4 4.2 02:02:22 58° NNE 02:02:22 58° NNE 02:05:29 10° N
Cosmos 1818 3.5 02:00:12 10° NW 02:05:38 66° WSW 02:05:51 66° SW
Cosmos 1674 3.3 02:08:51 53° NNW 02:08:51 53° NNW 02:11:51 10° N
Cosmos 1633 Rocket 4.4 02:07:48 29° ESE 02:08:41 31° E 02:12:35 10° NNE
SL-08 R/B 4.3 02:07:27 28° ESE 02:09:29 43° ENE 02:14:06 10° N
Cosmos 1707 Rocket 4.2 02:06:18 10° N 02:10:34 48° ENE 02:11:20 43° ESE
Iridium 2 4.0 02:12:13 64° NE 02:12:13 64° NE 02:15:37 10° N
CENTAUR R/B 3.1 02:10:43 35° SSE 02:12:17 41° ESE 02:18:31 10° NE
Cosmos 1666 Rocket 4.3 02:13:05 40° ESE 02:13:38 42° E 02:17:43 10° NNE
H-2A R/B 3.5 02:14:44 28° SE 02:14:44 28° SE 02:24:43 10° E
Cosmos 836 Rocket 4.3 02:10:10 10° NNW 02:15:24 81° WSW 02:16:13 63° S
Lacrosse 5 3.4 02:16:12 10° NW 02:20:53 36° NNE 02:25:32 10° E
Cosmos 1726 3.2 02:21:07 10° N 02:24:36 38° ENE 02:25:11 36° ESE
PSLV R/B 3.6 02:20:07 10° N 02:24:46 69° WNW 02:25:11 64° WSW
Cosmos 2369 4.3 02:20:56 10° NW 02:26:01 38° WSW 02:26:01 38° WSW
IRAS Rocket 4.1 02:20:38 10° NNE 02:26:10 88° W 02:27:34 52° SSW
Cosmos 2322 Rocket 4.4 02:21:55 10° N 02:26:23 23° NE 02:30:50 10° ESE
Cosmos 1656 3.6 02:21:34 10° NNW 02:27:17 75° WSW 02:28:57 47° S
CZ-2C R/B 4.3 02:24:49 10° NNW 02:28:55 22° WNW 02:30:39 19° W
CZ-2C R/B 4.3 02:29:35 28° W 02:29:35 28° W 02:34:17 10° NW
ARIANE 5 R/B 4.3 02:28:20 10° NE 02:32:24 23° E 02:35:25 14° SE
USA 161 4.0 02:34:26 16° ENE 02:34:26 16° ENE 02:35:49 10° NNE
Cosmos 1867 4.1 02:37:24 36° WSW 02:39:11 50° NW 02:44:32 10° NNE
IRS-P3 4.0 02:34:15 10° NNE 02:39:36 83° WNW 02:41:12 47° SSW
Cosmos 1151 Rocket 4.3 02:36:24 10° NNW 02:39:29 27° WNW 02:39:29 27° WNW
Genesis I 3.0 02:36:41 10° NW 02:40:38 81° WSW 02:40:38 81° WSW
Cosmos 1437 Rocket 3.8 02:38:23 10° NNW 02:41:18 32° WNW 02:41:18 32° WNW
H-2A ROCKET BODY4.102:47:55SE02:47:55SE02:29:35WSW
Aureole 1 Rocket 3.3 02:42:57 10° NNW 02:47:19 69° WSW 02:49:09 40° S
ASTEX 1 4.5 02:46:07 10° NNW 02:50:25 30° WNW 02:51:17 28° W
Resurs 1-4 Rocket 3.8 02:47:25 10° NE 02:51:51 26° E 02:56:04 11° SSE
Sich 1 3.0 02:53:35 54° SSW 02:54:31 77° W 02:58:57 10° N
Cosmos 2151 4.3 02:58:18 26° W 02:58:38 26° WNW 03:02:15 10° NNW
Cosmos 1980 Rocket 2.1 02:53:50 10° NNW 02:59:30 86° WSW 03:04:06 16° SSE
Cosmos 1862 Rocket 4.5 02:58:39 10° N 03:03:00 47° ENE 03:06:36 14° SSE
Cosmos 1300 3.3 03:04:10 10° NNW 03:07:46 39° W 03:07:48 39° W
BREEZE-M DEB (TANK) 2.3 03:08:59 49° SSW 03:09:39 63° SE 03:16:33 10° ENE
Cosmos 371 Rocket 3.5 03:05:15 10° NNW 03:10:07 72° ENE 03:14:56 10° SSE
Cosmos 540 Rocket 3.6 03:05:40 10° NNW 03:10:41 52° WSW 03:12:41 33° SSW
USA 215 3.9 03:05:54 10° NE 03:12:09 50° NNW 03:17:13 16° W
Cosmos 2058 4.0 03:12:15 28° W 03:12:53 29° WNW 03:16:34 10° NNW
Cosmos 2242 Rocket 3.7 03:09:33 10° NNW 03:13:53 55° W 03:15:13 38° SSW
Cosmos 2082 Rocket 3.4 03:11:43 20° W 03:14:23 30° NW 03:19:20 10° N
ERS-2 3.5 03:12:41 10° NNW 03:15:47 25° WNW 03:16:18 24° W
AQUA 4.3 03:16:13 10° N 03:20:46 46° WNW 03:22:38 30° WSW
Cosmos 1697 Rocket 3.4 03:16:38 10° NW 03:21:43 34° WSW 03:23:25 28° SW
NPP 4.3 03:18:00 10° N 03:23:02 41° WNW 03:25:31 26° WSW
CZ-2D R/B 2.8 03:19:43 10° NNE 03:24:48 50° E 03:29:13 14° S
Cosmos 1869 3.8 03:21:52 10° N 03:25:47 58° E 03:29:21 12° SSE
SL-16 R/B 2.7 03:20:05 10° SSE 03:26:19 75° ENE 03:32:35 10° N
ISS -0.3 03:24:23 10° NNW 03:26:42 18° NNE 03:29:02 10° ENE
H-2A R/B 4.4 02:45:13 10° W 03:29:48 41° SSW 03:35:59 10° SE
UNKNOWN OBJECT B 4.1 03:27:10 10° NNE 03:30:39 34° E 03:33:49 12° SSE
Abrixas 3.3 03:29:47 29° WNW 03:30:58 46° NNW 03:33:59 10° NE
Cosmos 2360 4.1 03:25:34 10° NNW 03:31:14 69° WSW 03:36:54 10° SSE
SL-14 R/B 4.4 03:30:30 26° W 03:31:18 28° WNW 03:34:38 10° NNW
Cosmos 1833 Rocket 4.0 03:29:15 18° W 03:32:20 28° NW 03:37:09 10° N
Spot 4 Rocket 4.1 03:28:23 10° N 03:33:28 65° WNW 03:36:30 24° SSW
Cosmos 1455 2.1 03:31:55 10° N 03:35:44 86° W 03:38:21 19° S
CZ-4C R/B 4.4 03:35:55 10° WNW 03:39:40 17° NNW 03:43:44 10° NNE
Cosmos 968 Rocket 3.6 03:38:15 25° SW 03:41:11 62° WNW 03:46:17 10° NNE
Cosmos 1538 Rocket 4.1 03:37:13 10° NNW 03:42:18 55° WSW 03:47:25 10° S
Cosmos 1703 4.2 03:43:37 25° WSW 03:45:07 34° WNW 03:48:46 10° N
CZ-3 Stage 3 3.8 03:35:54 10° WSW 03:45:33 28° SSW 03:48:53 10° SE
Cosmos 923 Rocket 4.2 03:40:39 10° NNW 03:45:57 73° ENE 03:51:10 10° SSE
Atlas Centaur 2 4.4 03:50:23 12° SSW 03:50:23 12° SSW 03:51:25 10° S
Lacrosse 5 rocket 2.8 03:44:57 10° NW 03:49:11 45° NE 03:53:34 10° ESE
ATLAS 5 CENTAUR R/B 3.3 03:45:09 10° S 03:49:22 30° ESE 03:53:48 10° NE
ADEOS 4.3 03:44:43 10° N 03:49:32 39° WNW 03:52:43 19° SW
FALCON 9 R/B 2.3 03:53:26 14° SSE 03:53:26 14° SSE 03:54:29 10° SE
EO 1 Del DPAF 3.7 03:52:36 19° SSW 03:55:04 43° W 03:58:49 10° NNW
SL-16 R/B 2.1 03:49:48 10° NNW 03:55:30 81° WSW 04:01:10 10° SSE
Cosmos 1680 Rocket 3.8 03:51:49 10° NNW 03:57:02 70° ENE 04:02:13 10° SSE
Cosmos 1703 Rocket 3.8 03:52:56 10° N 03:57:19 72° E 04:01:39 10° SSE
Thor Agena Rocket 4.5 03:53:01 10° SE 03:58:08 53° ENE 04:03:18 10° N
Cosmos 1726 4.2 03:58:02 10° WNW 03:59:35 12° W 03:59:50 12° W
Meteor 1-4 Rocket 3.4 03:58:11 10° NNW 04:01:34 33° W 04:03:48 18° SSW
CENTAUR R/B 3.4 03:57:54 14° WSW 04:02:56 41° NW 04:09:30 10° NNE
Cosmos 1777 Rocket 4.1 03:59:39 17° SSW 04:03:44 64° WNW 04:09:01 10° NNE
Lacrosse 5 2.1 03:59:06 10° NW 04:03:56 46° SW 04:08:44 10° SSE
IRS-1D 3.9 04:00:14 10° N 04:05:28 55° WNW 04:09:56 14° SW
Cosmos 1709 Rocket 4.4 04:02:08 15° SSW 04:07:13 48° WNW 04:13:18 10° N
UNK 3.9 04:04:20 10° S 04:08:45 49° W 04:13:12 10° NNW
Cosmos 1271 Rocket 3.7 04:05:35 10° NNW 04:08:50 27° W 04:11:02 16° SW
Cosmos 2322 Rocket 2.3 04:05:18 10° NNW 04:10:48 56° WSW 04:16:15 10° S
CRYOSAT 2 4.4 04:06:16 10° N 04:11:08 66° W 04:15:56 10° SSW
CZ-2C R/B 3.7 04:07:07 10° SSE 04:11:33 84° ENE 04:16:07 10° NNW
ARIANE 5 R/B 3.1 04:06:52 10° N 04:11:41 42° WNW 04:15:47 13° SW
BREEZE-M DEB (TANK) 3.1 04:11:41 10° NW 04:14:47 36° NNE 04:16:52 10° E
SME Rocket 4.0 04:07:20 10° SSE 04:14:59 84° WSW 04:19:59 10° NNW
Cosmos 773 Rocket 4.2 04:11:31 10° NNW 04:16:26 48° WSW 04:21:20 10° S
Cosmos 1626 3.3 04:15:54 15° SW 04:18:16 27° WNW 04:21:30 10° NNW
CZ-2D R/B 3.4 04:14:20 10° N 04:18:35 84° WNW 04:22:41 10° SSW
Okean O Rocket 1.7 04:14:19 10° NNE 04:18:47 81° ESE 04:23:12 10° S
BREEZE-M TANK 2.8 04:15:44 10° WNW 04:19:07 43° N 04:21:29 10° ENE
Cosmos 2292 Rocket 4.1 04:23:55 13° WSW 04:25:47 22° WNW 04:28:24 10° NNW
Cosmos 1898 Rocket 4.5 04:24:56 10° S 04:29:53 47° ESE 04:34:50 10° NNE
Resurs 1-4 Rocket 2.8 04:26:50 10° N 04:31:47 40° WNW 04:36:43 10° SW
Okean-O 3.8 04:33:28 10° NNE 04:37:44 44° E 04:41:58 10° S
ATLAS CENTAUR R/B 4.0 04:34:58 10° NNW 04:39:10 29° NE 04:43:03 10° ESE
Cosmos 2221 Rocket 4.1 04:35:21 10° NNW 04:39:33 40° W 04:43:46 10° SSW
Okean 1-7 3.1 04:37:12 10° NNW 04:41:33 60° W 04:45:50 10° S
Cosmos 1980 Rocket 4.0 04:41:07 10° W 04:42:34 11° W 04:44:03 10° WSW
CZ-4B R/B 3.2 04:38:28 10° NNE 04:43:54 79° WNW 04:49:23 10° SSW
Cosmos 2360 Rocket 2.2 04:38:39 10° NNW 04:44:18 83° WSW 04:49:55 10° SSE
OAO 3 Rocket 4.0 04:40:40 10° WSW 04:44:57 35° S 04:49:17 10° ESE
In-Cosmos 22 Rocket 4.1 04:43:24 10° S 04:48:42 87° W 04:54:05 10° N
Cosmos 2322 3.7 04:43:54 10° NNW 04:49:39 77° WSW 04:55:21 10° SSE
Cosmos 2112 Rocket 4.3 04:45:05 10° NNW 04:50:01 45° WSW 04:54:56 10° S
Cosmos 2219 3.7 04:44:26 10° S 04:50:05 66° ESE 04:55:48 10° NNE
